Wind_Speed
12 10 12 10 13 12 13 12 12 13 12 10 10 9 6 3 4 5 6 4 4 3 2 4 5 5 5 5 7 9 11 13 14 14 16 17 18 18 18 19 18 22 21 20 17 17 16 19 22
13 11 12 13 13 13 15 10 12 14 12 9 8 10 6 4 5 4 4 5 5 5 4 4 5 5 5 5 7 10 12 13 14 14 17 17 18 18 18 19 20 22 22 21 17 15 15 20 22
4 8 11 12 9 12 13 11 11 12 9 8 9 8 6 8 6 4 7 5 8 5 4 5 6 4 5 6 8 11 13 13 13 14 16 17 17 18 17 19 18 20 20 21 20 18 18 17 19
11 11 11 13 10 11 11 12 11 8 11 9 9 10 10 7 6 5 3 1 12 7 7 6 6 5 7 8 9 12 13 13 13 15 17 17 18 17 18 17 18 19 20 19 19 19 20 18 17
11 11 10 11 10 9 12 12 11 12 12 11 14 10 12 10 8 6 7 9 9 4 4 8 7 8 9 10 10 11 12 12 14 17 18 18 18 17 18 16 16 16 17 17 18 18 20 20 20
12 12 12 10 9 11 13 11 10 11 9 13 15 11 12 10 6 8 9 6 5 3 4 8 10 10 11 12 11 11 12 13 15 17 18 18 18 17 16 14 13 13 14 13 12 13 19 18 19
11 11 11 9 11 11 12 11 12 12 13 14 14 13 13 11 7 10 9 6 6 11 11 12 13 12 12 12 12 12 13 15 17 18 18 19 18 17 15 12 11 11 11 13 13 14 17 20 14
8 10 9 14 12 12 11 9 10 13 11 13 16 16 15 13 11 13 12 10 12 14 15 15 18 16 14 13 14 14 14 16 17 18 19 17 15 13 12 11 9 10 11 13 12 12 14 17 18
9 10 10 10 14 14 10 7 10 11 9 12 15 14 14 15 12 14 14 13 15 17 19 18 17 17 16 15 16 15 15 16 17 16 15 13 11 10 9 9 8 9 9 9 13 13 13 15 15
5 8 7 6 10 11 11 7 9 8 8 11 11 10 13 16 13 12 15 14 15 19 21 20 19 18 18 17 16 16 15 15 15 14 12 11 8 6 6 7 5 6 3 10 12 13 12 13 13
5 7 8 6 10 9 8 8 9 9 9 9 7 9 11 14 13 12 13 16 16 17 18 19 18 17 17 17 16 17 17 16 14 11 11 9 6 5 7 7 15 2 5 9 13 10 9 10 10
6 4 3 12 9 5 7 8 6 6 8 7 5 7 7 11 12 13 14 16 15 15 15 16 15 14 14 14 13 12 13 14 12 12 10 8 8 8 10 7 12 16 9 5 7 7 7 7 7
4 5 3 7 8 8 7 4 3 4 4 4 4 4 6 7 10 14 11 14 15 14 13 14 13 11 13 15 15 14 14 13 16 12 11 7 6 8 6 7 9 10 8 8 7 7 8 8 9
1 6 3 2 3 5 5 3 1 5 3 4 3 2 3 5 8 12 12 11 11 12 12 12 13 10 9 12 14 13 13 14 14 11 10 9 8 10 6 5 6 6 6 9 7 6 7 8 9
10 2 4 4 4 5 6 10 3 6 6 4 2 2 1 4 4 9 12 12 8 11 12 10 11 12 7 10 11 10 9 11 10 9 5 5 5 5 2 4 4 5 6 8 7 7 5 6 9
6 10 9 6 6 4 3 13 12 11 10 4 3 3 3 1 3 5 4 7 12 11 11 12 12 14 11 8 9 6 7 10 10 7 4 2 2 3 0 4 5 6 8 9 9 11 10 9 10
8 8 11 8 7 2 3 4 10 7 9 6 0 4 3 5 3 3 5 5 6 10 11 10 10 11 12 7 4 4 2 4 2 3 2 1 3 4 3 4 5 6 9 10 11 12 14 13 10
14 15 7 9 10 1 3 2 4 4 9 9 3 5 7 5 5 5 4 9 11 11 12 11 10 9 9 9 6 5 5 5 5 5 5 5 7 8 7 7 6 7 9 9 13 15 15 14 15
1 18 10 12 11 10 2 7 3 4 2 7 4 2 3 6 8 10 9 10 13 14 12 12 12 11 9 9 8 9 9 11 11 10 10 11 10 9 7 9 10 9 8 10 12 16 16 18 17
1 2 6 13 15 9 5 5 2 2 6 6 7 8 5 6 10 15 14 12 12 15 14 15 15 14 12 12 11 11 13 14 14 13 14 15 15 13 13 13 12 11 13 16 11 11 16 22 18
5 7 3 12 3 4 5 9 5 6 5 4 5 8 10 15 13 12 17 16 14 13 11 14 14 12 11 9 8 10 13 15 15 15 15 14 15 16 16 16 14 4 8 10 13 10 9 13 19
7 3 6 12 15 11 11 9 2 5 5 5 7 1 5 7 12 20 15 16 16 15 13 12 12 13 11 10 10 11 13 12 13 14 15 14 15 11 16 14 11 2 5 6 8 11 12 10 3
10 8 11 14 15 12 16 9 8 13 17 13 15 14 14 12 7 17 21 20 21 19 16 14 14 14 13 13 14 15 17 17 16 17 18 19 18 17 13 12 14 16 10 14 14 14 13 18 14
17 18 19 18 15 13 16 19 8 14 16 19 19 21 19 15 12 20 24 25 23 19 18 17 14 13 11 12 15 18 19 20 20 23 24 26 22 21 19 19 12 13 17 19 20 21 19 19 19
15 18 20 18 19 16 17 20 19 19 18 18 19 19 19 14 12 17 27 27 26 23 23 18 10 16 16 17 19 20 20 23 26 30 30 19 22 27 19 10 12 16 18 21 24 22 22 23 23
15 17 20 22 20 19 18 23 21 14 13 16 20 17 11 9 14 11 18 29 28 29 16 18 17 21 20 22 25 28 24 27 28 37 31 28 33 18 15 17 16 19 24 27 27 25 24 26 29
22 25 24 27 25 24 23 22 17 13 14 13 15 13 16 11 8 8 6 16 32 13 21 23 23 28 21 26 27 30 27 27 29 41 34 23 19 14 16 21 22 23 25 25 26 26 26 28 33
25 30 32 33 32 32 33 26 22 20 19 17 18 19 20 18 11 15 10 6 9 11 15 17 21 23 27 28 29 34 35 26 44 21 20 19 23 22 21 24 25 26 26 26 27 27 28 29 33
31 35 37 37 35 37 40 31 26 23 22 24 23 23 22 24 21 19 20 16 13 15 18 17 19 27 31 37 36 42 45 37 33 20 19 23 22 21 23 26 27 27 28 29 30 32 33 33 33
36 37 38 38 39 42 46 45 33 30 28 25 27 28 29 25 26 19 16 16 17 18 14 18 22 25 26 31 34 35 33 35 32 30 26 24 22 23 25 26 26 26 27 31 33 35 36 35 35
Wind_Direction
115 77 71 80 80 87 74 71 76 70 62 63 54 49 47 83 113 136 149 159 133 100 38 43 60 71 80 85 86 90 99 93 93 95 93 93 87 81 77 74 73 77 79 80 83 88 92 86 82
85 53 82 93 100 94 82 80 82 80 65 50 38 42 41 49 87 105 118 128 108 80 59 56 64 74 80 75 85 94 97 89 94 97 91 85 81 82 80 77 80 85 83 80 96 104 85 84 78
56 70 96 100 99 88 92 84 76 85 69 52 39 46 45 51 60 101 115 127 101 71 66 72 84 90 90 82 87 94 93 90 96 96 93 85 81 82 83 79 82 74 68 71 83 85 83 81 76
100 102 107 100 102 89 92 90 91 68 53 44 41 58 61 71 78 97 139 236 100 80 93 111 114 98 93 88 86 96 99 101 104 97 89 84 80 80 79 77 77 71 68 76 72 72 67 80 84
101 109 95 108 106 97 84 77 68 52 32 30 32 43 60 59 91 86 65 68 67 81 92 117 124 104 95 88 88 100 96 99 92 84 83 79 76 76 77 71 74 72 67 69 64 68 59 59 65
133 87 81 101 102 99 87 77 66 55 38 36 31 24 66 64 81 98 87 86 77 109 115 141 131 113 99 95 102 104 99 99 91 84 81 80 77 75 75 72 74 73 74 73 58 60 53 56 63
104 91 88 94 111 95 94 73 57 47 37 39 35 34 56 71 84 109 114 114 102 120 125 139 130 120 117 111 111 103 101 97 89 83 79 77 81 82 79 70 70 64 54 52 50 51 49 54 52
91 103 115 98 105 101 87 76 65 46 34 34 39 41 54 72 96 116 118 107 112 122 122 125 134 136 127 117 109 100 104 100 100 98 95 92 90 85 71 61 55 54 49 53 43 46 40 41 64
99 124 126 122 117 111 94 78 60 51 31 31 39 50 67 83 92 111 109 116 120 123 121 124 128 124 120 115 110 109 117 115 107 109 109 106 98 85 72 69 51 42 45 36 53 38 34 38 43
70 98 109 122 101 100 107 93 68 56 45 36 36 55 75 88 92 102 115 123 125 126 124 123 125 127 121 116 115 115 120 127 125 127 120 111 102 92 70 50 37 64 40 50 42 40 36 37 42
50 90 136 127 91 87 101 87 63 53 45 52 25 53 71 87 99 104 123 128 129 130 130 130 134 131 129 130 131 131 131 135 138 126 113 114 105 79 52 27 26 89 85 52 54 50 40 40 31
93 79 93 106 93 106 110 94 70 55 67 60 47 70 68 83 102 120 125 130 130 131 133 131 131 134 134 131 125 121 125 116 121 122 124 119 99 68 49 66 52 91 89 85 33 25 30 18 18
72 34 82 118 96 117 109 84 50 1 53 71 55 74 97 102 99 110 131 134 136 137 139 131 128 138 143 138 134 130 132 124 123 126 123 108 95 59 66 79 82 80 57 64 58 37 9 8 356
188 23 25 126 58 87 128 140 32 327 43 77 50 27 104 133 137 120 119 135 149 145 146 141 132 129 139 141 133 134 136 130 132 129 127 116 97 88 72 63 41 48 19 6 20 32 22 2 1
290 335 347 28 56 48 46 43 341 349 35 58 120 220 188 130 151 142 129 136 154 145 155 153 141 133 139 142 139 131 136 130 128 123 125 116 106 85 22 347 358 1 346 353 342 347 353 352 339
191 233 287 297 10 52 8 14 16 12 25 15 158 203 252 224 154 134 152 160 153 152 155 150 155 151 159 172 148 165 156 159 155 154 152 134 118 112 126 310 334 331 328 325 320 321 328 335 334
261 276 261 304 318 275 307 338 1 357 11 19 10 179 240 273 251 170 158 218 222 170 165 161 166 162 163 170 166 154 285 297 216 172 169 210 275 273 253 273 288 309 308 309 307 310 310 315 318
290 239 243 285 296 263 240 155 314 287 341 330 311 205 207 225 257 266 225 203 216 216 185 179 175 180 175 176 194 177 194 231 243 245 238 241 240 260 260 253 272 285 287 300 307 299 296 303 307
337 245 253 279 285 238 291 128 78 65 45 323 301 277 254 241 250 247 237 235 222 216 212 199 197 190 197 201 209 214 209 221 229 233 234 232 234 238 273 279 278 284 273 257 278 281 286 289 287
17 312 306 295 281 289 316 151 229 1 0 312 272 280 283 281 246 247 247 237 233 226 210 210 211 209 209 210 217 237 236 240 233 233 240 242 249 252 249 249 254 262 255 258 302 312 306 270 268
63 10 38 358 338 295 350 345 245 342 329 327 304 291 287 290 263 257 249 244 237 236 221 217 210 218 222 233 236 230 234 240 251 249 246 246 255 258 250 242 224 209 227 291 318 338 332 280 271
4 216 304 325 328 359 359 23 36 0 312 311 326 349 253 321 270 247 253 252 239 244 232 212 208 200 208 211 218 236 242 243 249 248 248 240 240 237 243 263 234 204 304 313 315 307 303 283 329
338 312 324 311 289 293 304 293 293 308 313 312 303 306 291 285 257 233 244 237 244 232 231 221 202 204 209 224 234 239 246 254 255 254 250 236 225 227 249 249 280 301 304 310 313 300 296 289 276
314 314 310 317 312 296 278 283 266 281 287 293 297 302 306 294 278 235 244 244 239 231 230 225 222 231 233 235 250 253 261 271 259 260 259 233 230 238 241 253 276 296 299 297 298 298 298 285 288
337 329 326 324 317 309 293 292 304 302 293 294 296 300 301 290 261 255 240 236 226 226 230 231 212 262 259 249 252 258 272 265 261 266 258 207 240 246 232 276 273 282 286 283 285 292 289 278 279
339 336 330 327 319 314 304 302 303 290 267 277 294 298 302 316 273 242 251 232 223 233 254 279 267 255 264 267 263 265 277 277 256 283 234 238 241 234 305 290 284 284 285 287 290 290 286 271 267
333 325 322 314 312 303 303 295 289 283 284 293 286 295 289 277 279 256 254 242 223 243 265 259 255 253 270 267 264 271 276 270 283 279 242 236 264 277 298 287 286 284 286 286 285 284 284 274 263
316 315 315 317 313 304 307 309 291 273 280 273 291 292 298 308 296 289 278 266 256 241 257 269 256 257 264 265 267 271 268 258 257 270 271 283 297 308 295 286 285 289 290 289 291 289 283 280 271
310 310 310 309 307 303 303 304 303 291 285 287 282 292 297 307 308 304 307 305 278 275 303 287 275 263 269 274 282 261 255 275 280 288 294 306 309 295 285 284 288 289 291 294 296 297 294 284 279
304 302 299 294 291 288 290 292 295 290 288 292 288 286 296 293 299 307 304 294 281 286 292 296 286 285 282 284 294 299 300 301 307 312 307 299 289 286 288 287 288 290 291 293 296 299 299 295 285
Height
5896 5899 5899 5900 5903 5901 5900 5901 5900 5898 5898 5897 5897 5897 5898 5896 5896 5897 5896 5896 5897 5898 5898 5899 5900 5902 5902 5903 5904 5904 5905 5907 5907 5908 5907 5907 5907 5908 5909 5909 5909 5907 5907 5906 5906 5906 5905 5903 5901
5897 5900 5902 5903 5904 5902 5902 5903 5902 5901 5901 5899 5899 5899 5898 5897 5896 5896 5897 5897 5898 5899 5901 5901 5901 5902 5903 5903 5904 5905 5907 5908 5909 5910 5909 5909 5909 5910 5911 5912 5912 5911 5910 5910 5909 5908 5907 5907 5906
5900 5902 5905 5905 5905 5905 5903 5904 5905 5904 5903 5903 5902 5901 5900 5898 5897 5897 5897 5898 5899 5900 5902 5902 5902 5903 5903 5904 5905 5907 5909 5910 5911 5911 5911 5911 5912 5914 5915 5916 5916 5916 5916 5915 5915 5913 5911 5910 5909
5904 5905 5907 5907 5907 5906 5904 5904 5906 5906 5905 5905 5903 5901 5900 5898 5898 5899 5898 5899 5898 5901 5903 5904 5904 5904 5904 5904 5906 5908 5910 5911 5912 5913 5914 5915 5916 5917 5919 5918 5919 5919 5918 5918 5918 5917 5916 5913 5911
5906 5907 5908 5908 5908 5907 5905 5906 5907 5907 5907 5906 5903 5901 5899 5899 5899 5899 5900 5900 5901 5903 5903 5904 5905 5905 5905 5906 5908 5910 5912 5914 5915 5916 5918 5918 5919 5921 5921 5922 5921 5922 5921 5921 5921 5920 5918 5916 5915
5908 5910 5910 5910 5910 5909 5908 5909 5909 5909 5908 5906 5904 5903 5900 5900 5900 5900 5901 5902 5903 5903 5904 5904 5905 5906 5908 5908 5910 5912 5914 5916 5917 5919 5921 5921 5923 5924 5924 5925 5925 5924 5924 5924 5923 5923 5921 5920 5919
5910 5911 5911 5912 5911 5911 5912 5911 5910 5910 5908 5906 5905 5904 5901 5900 5901 5902 5902 5903 5904 5904 5904 5903 5905 5907 5908 5910 5912 5914 5917 5918 5920 5922 5923 5924 5926 5927 5927 5927 5927 5926 5926 5926 5925 5924 5924 5923 5921
5911 5913 5912 5913 5912 5912 5912 5911 5912 5910 5909 5908 5906 5904 5903 5901 5902 5904 5904 5904 5905 5904 5904 5905 5905 5906 5908 5911 5914 5916 5919 5919 5921 5923 5924 5926 5927 5928 5929 5929 5929 5930 5929 5929 5927 5926 5924 5924 5923
5912 5913 5912 5914 5913 5912 5912 5914 5914 5913 5912 5909 5908 5907 5906 5904 5905 5905 5906 5907 5908 5906 5906 5906 5907 5909 5910 5913 5916 5917 5919 5920 5923 5924 5926 5926 5928 5929 5930 5931 5932 5932 5931 5930 5929 5928 5929 5927 5926
5913 5914 5915 5916 5915 5914 5913 5915 5915 5916 5915 5912 5911 5910 5909 5907 5907 5908 5908 5910 5910 5909 5908 5909 5910 5910 5912 5914 5916 5918 5920 5921 5923 5925 5927 5928 5928 5929 5930 5931 5932 5933 5931 5931 5930 5930 5930 5930 5930
5914 5916 5916 5916 5916 5917 5915 5916 5916 5917 5916 5914 5913 5911 5910 5909 5909 5910 5910 5911 5912 5912 5912 5912 5912 5913 5914 5915 5917 5918 5920 5922 5924 5926 5929 5930 5929 5930 5931 5932 5931 5932 5932 5932 5932 5932 5932 5933 5931
5917 5917 5917 5916 5917 5918 5916 5915 5917 5917 5916 5916 5914 5912 5911 5911 5912 5911 5913 5913 5914 5914 5914 5915 5916 5917 5917 5918 5920 5922 5923 5925 5926 5928 5929 5930 5931 5931 5932 5931 5933 5932 5934 5935 5935 5934 5934 5934 5933
5919 5919 5918 5919 5918 5918 5917 5915 5917 5919 5919 5917 5915 5914 5912 5912 5913 5914 5914 5915 5915 5915 5916 5917 5918 5919 5919 5919 5921 5922 5923 5926 5927 5929 5930 5931 5931 5931 5932 5933 5934 5933 5935 5936 5937 5936 5935 5935 5933
5919 5921 5922 5921 5921 5920 5919 5917 5918 5919 5920 5919 5918 5916 5915 5914 5912 5914 5915 5915 5915 5915 5916 5917 5919 5921 5922 5922 5923 5925 5926 5927 5928 5929 5930 5930 5931 5932 5933 5934 5933 5934 5934 5934 5936 5936 5936 5934 5934
5919 5921 5922 5921 5920 5919 5919 5920 5920 5919 5918 5919 5918 5916 5915 5916 5915 5914 5913 5915 5916 5917 5916 5918 5919 5922 5925 5925 5925 5926 5928 5929 5929 5930 5931 5930 5931 5931 5932 5932 5933 5933 5934 5933 5933 5934 5935 5935 5934
5920 5921 5922 5920 5918 5919 5919 5919 5919 5919 5919 5918 5919 5918 5915 5915 5914 5914 5914 5914 5916 5916 5916 5916 5917 5917 5920 5923 5926 5928 5927 5927 5927 5929 5930 5930 5930 5930 5931 5931 5930 5931 5931 5931 5930 5930 5930 5932 5932
5920 5919 5918 5917 5916 5917 5918 5919 5920 5920 5919 5918 5918 5918 5917 5915 5913 5913 5913 5915 5916 5917 5915 5916 5917 5918 5920 5921 5924 5927 5931 5934 5932 5930 5930 5931 5930 5929 5929 5928 5927 5928 5928 5928 5928 5927 5927 5928 5928
5916 5915 5915 5916 5916 5916 5917 5919 5920 5919 5918 5917 5917 5915 5912 5912 5913 5912 5912 5913 5913 5915 5917 5915 5917 5918 5919 5922 5923 5925 5928 5931 5932 5930 5928 5927 5928 5929 5929 5927 5924 5923 5924 5925 5925 5924 5923 5922 5923
5910 5913 5914 5915 5915 5915 5917 5918 5918 5917 5917 5916 5916 5915 5914 5913 5911 5911 5913 5914 5913 5912 5914 5916 5915 5916 5919 5920 5922 5923 5922 5924 5926 5926 5925 5924 5924 5924 5925 5926 5924 5922 5922 5920 5920 5920 5920 5920 5919
5913 5915 5916 5915 5914 5915 5916 5917 5916 5917 5917 5915 5914 5914 5913 5912 5911 5910 5911 5913 5914 5912 5910 5913 5915 5913 5914 5917 5919 5921 5921 5920 5920 5921 5923 5923 5922 5920 5919 5920 5921 5920 5918 5918 5917 5916 5915 5914 5914
5918 5918 5917 5915 5914 5915 5914 5914 5914 5915 5915 5915 5914 5914 5912 5911 5909 5907 5908 5910 5911 5911 5910 5910 5911 5912 5912 5914 5916 5917 5916 5916 5916 5917 5919 5921 5920 5919 5915 5914 5914 5913 5913 5912 5912 5910 5909 5909 5909
5917 5916 5917 5915 5915 5916 5916 5916 5915 5915 5914 5914 5914 5912 5911 5908 5906 5905 5906 5908 5910 5909 5908 5908 5909 5908 5909 5909 5910 5913 5914 5912 5913 5914 5914 5913 5912 5911 5909 5906 5905 5904 5905 5908 5908 5908 5907 5905 5902
5917 5915 5914 5914 5913 5913 5913 5915 5915 5913 5912 5911 5909 5909 5908 5906 5902 5901 5903 5904 5905 5904 5905 5906 5906 5907 5906 5905 5905 5904 5906 5908 5908 5908 5907 5906 5905 5905 5904 5904 5904 5902 5902 5903 5903 5902 5901 5900 5899
5914 5913 5912 5911 5911 5912 5909 5910 5912 5911 5908 5906 5905 5903 5901 5899 5898 5898 5899 5899 5900 5901 5900 5901 5902 5902 5902 5900 5900 5901 5900 5901 5901 5900 5899 5898 5898 5897 5897 5897 5897 5897 5898 5898 5898 5897 5894 5894 5892
5911 5909 5907 5909 5908 5908 5906 5905 5906 5906 5904 5902 5901 5899 5896 5896 5895 5891 5890 5894 5895 5896 5895 5893 5896 5897 5897 5896 5896 5895 5894 5894 5894 5892 5890 5887 5889 5887 5886 5888 5890 5891 5891 5891 5891 5888 5888 5886 5885
5909 5909 5906 5903 5904 5904 5903 5902 5901 5900 5899 5898 5896 5895 5893 5893 5892 5889 5888 5888 5890 5892 5890 5889 5891 5890 5892 5891 5890 5890 5889 5887 5881 5877 5877 5882 5878 5865 5874 5881 5882 5883 5883 5882 5880 5879 5878 5877 5876
5906 5905 5905 5901 5900 5898 5898 5897 5899 5897 5895 5894 5894 5893 5891 5892 5890 5886 5884 5882 5885 5887 5890 5889 5887 5888 5889 5888 5887 5884 5882 5883 5868 5869 5870 5872 5869 5871 5874 5875 5876 5875 5875 5874 5872 5871 5869 5868 5867
5902 5902 5900 5897 5893 5891 5891 5891 5891 5893 5892 5891 5890 5889 5888 5887 5888 5887 5885 5884 5885 5886 5886 5886 5884 5885 5883 5883 5882 5877 5874 5873 5862 5862 5864 5864 5865 5866 5866 5867 5867 5866 5864 5864 5863 5861 5860 5859 5857
5898 5897 5895 5893 5890 5884 5880 5884 5885 5886 5887 5886 5885 5884 5885 5884 5884 5883 5882 5881 5882 5883 5882 5881 5880 5878 5876 5874 5874 5868 5864 5839 5855 5855 5856 5856 5859 5861 5861 5860 5858 5857 5856 5855 5854 5853 5851 5850 5848
5894 5892 5890 5886 5883 5880 5875 5873 5878 5878 5878 5878 5878 5878 5879 5880 5879 5879 5879 5878 5877 5877 5876 5876 5875 5873 5869 5864 5862 5859 5855 5849 5847 5847 5851 5856 5857 5855 5854 5852 5850 5849 5848 5847 5846 5844 5842 5840 5839